Details From KEGE - Eagle Co Rgnl
To KASE - Aspen Pitkin Co Sardy Fld
Flight Number -
Tags Decoded
Created
Modified
Stats Distance 25 nm / 47 km
Max Altitude 0 ft / 0 m
Waypoints 5
Social Downloads 2
Likes 0
Share VATSIM

Download

Looking for another format? Having issues loading an existing format? Contact us
Advertisement - Login to hide

Notes

Decoded

Route

KEGE NUTOE JOSAN SAYYO KASE

ID Type Via Altitude Latitude Longitude Leg Dist Tot Dist Heading (true) Name
O KEGE APT - 0 ft / 0 m 39.64472˚ -106.92333˚ - 0 nm - EAGLE CO RGNL
NUTOE FIX - 0 ft / 0 m 39.34460˚ -106.92691˚ 18 nm 18 nm 181° / 181° -
JOSAN FIX - 0 ft / 0 m 39.28377˚ -106.89780˚ 3 nm 21 nm 160° / 160° -
SAYYO FIX - 0 ft / 0 m 39.24390˚ -106.87875˚ 2 nm 24 nm 160° / 160° -
O KASE APT - 0 ft / 0 m 39.23217˚ -106.87315˚ 0 nm 25 nm 160° / 160° -

Altitude Profile

Advertisement - Login to hide

KEGE

Details ICAO KEGE (EGE)
Name EAGLE CO RGNL
Region United States
Timezone America/Denver (UTC-6.0)
Stats Elevation 6,540 ft / 1,993 m (AMSL)
Location 39.642567° -106.917696°
Runways 1
Magnetic Variation 9.120° E

METAR

KEGE 230256Z AUTO 16005KT 10SM CLR 13/04 A3009 RMK AO2 SLP155 T01330044 53009

Decode

TAF

TAF AMD KEGE 230111Z 2301/2324 30006KT P6SM VCSH SCT060 BKN120 FM230200 25009KT P6SM FEW060 SCT140 FM230500 13004KT P6SM FEW070 SCT250 FM231800 23012G19KT P6SM FEW090 SCT150 AMD LTD TO CLD VIS AND WIND 2305/2313

Decode

Departure Runways

ID Width Length Bearing (true) Bearing (mag) Surface Threshold Offset Overrun Length
07 150 ft / 46 m 7,981 ft / 2,433 m 81.90° 72.78° Asphalt 0 ft / 0 m 0 ft / 0 m
25 150 ft / 46 m 7,981 ft / 2,433 m 261.92° 252.80° Asphalt 0 ft / 0 m 0 ft / 0 m

KASE

Details ICAO KASE (ASE)
Name Aspen Pitkin Co Sardy Fld
Region United States
Timezone America/Denver (UTC-6.0)
Stats Elevation 7,820 ft / 2,384 m (AMSL)
Location 39.223164° -106.868847°
Runways 1
Magnetic Variation 9.051° E

METAR

KASE 230253Z AUTO 00000KT 10SM CLR 08/03 A3012 RMK AO2 SLP109 60000 T00780033 51019

Decode

TAF

KASE 230103Z 2301/2324 15015G24KT P6SM -RA VCTS FEW040 BKN050CB FM230230 19005KT P6SM SCT060 BKN140 FM231400 12008KT P6SM FEW250 FM231800 20011G18KT P6SM FEW090 SCT120

Decode

Destination Runways

ID Width Length Bearing (true) Bearing (mag) Surface Threshold Offset Overrun Length
15 100 ft / 30 m 7,011 ft / 2,137 m 159.71° 150.66° Asphalt 0 ft / 0 m 499 ft / 152 m
33 100 ft / 30 m 7,011 ft / 2,137 m 339.71° 330.66° Asphalt 0 ft / 0 m 0 ft / 0 m

Approach Navaids

Runway Type Ident Frequency Range Bearing (true) Bearing (mag) Slope Elevation
15 Localiser IPKN 108.50 MHz 25 nm / 46 km 312.00° 302.95° - 10,768 ft / 3,282 m (AMSL)
15 Localiser IASE 111.15 MHz 18 nm / 33 km 159.71° 150.66° - 7,832 ft / 2,387 m (AMSL)
15 DME IASE 111.15 MHz 18 nm / 33 km - - - 7,830 ft / 2,387 m (AMSL)

Popular Alternatives